Other Public Products
Issued by NWS Grand Forks, ND

Home | Current Version | Previous Version | Graphics & Text | Print | Product List | Glossary Off
Versions: 1 2 3 4 5 6 7 8 9 10 11 12 13 14 15 16 17 18 19 20 21 22 23 24 25 26 27 28 29 30 31 32 33 34 35 36 37 38 39 40 41 42 43 44 45 46 47 48 49 50

000
FPUS83 KFGF 011631
OPUFGF
PRAIRIE TO PINES WEATHER ROUNDUP
NATIONAL WEATHER SERVICE EASTERN NORTH DAKOTA/GRAND FORKS ND
1000 AM CST SUN FEB 01 2015

 **SATELLITE DATA USED TO AUGMENT SKY COVER AT AUTOMATED STATIONS**
 *****  WEATHER ACROSS EASTERN NORTH DAKOTA  *****

CITY           SKY/WX    TMP DP  RH WIND       PRES   REMARKS
GRAND FORKS    PTSUNNY   -9 -19  61 N12       30.59R WCI -28
GRAND FORKS AF MOSUNNY  -10 -21  58 N9        30.58S WCI -27
GRAND CITY NWS   N/A     -9 N/A N/A N12         N/A  WCI -29
BUXTON           N/A     -8 -15  72 N10         N/A  WCI -27
DEVILS LAKE    MOSUNNY  -11 -20  64 NW5       30.49F WCI -23
FARGO          MOSUNNY   -6 -15  65 N18       30.52S WCI -29
WAHPETON ARPT  MOSUNNY    0 -11  60 N18G25    30.47R WCI -22
$$

 *****  WEATHER ACROSS CENTRAL AND WESTERN NORTH DAKOTA  *****

CITY           SKY/WX    TMP DP  RH WIND       PRES   REMARKS
JAMESTOWN      MOSUNNY   -8 -17  64 N13       30.49R WCI -28
BISMARCK       MOSUNNY   -6 -18  56 N8        30.52F WCI -21
MINOT          MOSUNNY   -8 -16  67 VRB5      30.49F WCI -19
MINOT AFB      MOSUNNY   -8 -16  68 W5        30.50R WCI -19
GARRISON         N/A     -9 -16  71 NW9       30.49R WCI -26
WILLISTON      MOSUNNY   -8 -14  74 SW3       30.49F
DICKINSON      MOSUNNY  -10 -13  86 CALM      30.39S
HETTINGER      MOSUNNY   -3  -9  75 NW9       30.41R WCI -19
$$

 *****  OTHER OBSERVATIONS NORTHEAST NORTH DAKOTA  *****

CITY           SKY/WX    TMP DP  RH WIND       PRES   REMARKS
WALHALLA         N/A     -9 -18  64 NW3       30.57F
LANGDON        NOT AVBL
CAVALIER       FAIR      -9 -18  64 NW6       30.58F WCI -23
GRAFTON        NOT AVBL
CANDO          FAIR      -8 -20  54 NW8       30.52S WCI -23
FORT TOTTEN      N/A    -10 -21  57 N3        29.95S
ROLLA          FAIR      -9 -18  64 SW3       30.46F
RUGBY          FAIR      -9 -17  70 W6        30.51S WCI -23
 ***** THE ABOVE OBSERVATIONS ARE NON NWS ARE NOT QUALITY
        CONTROLLED AND MAY MIS-REPORT RAIN FOR SNOW...
$$

 *****  OTHER OBSERVATIONS SOUTHEAST NORTH DAKOTA *****

CITY           SKY/WX    TMP DP  RH WIND       PRES   REMARKS
COOPERSTOWN    NOT AVBL
VALLEY CITY    FAIR      -8 -15  71 N14       30.49S WCI -28
OAKES            N/A     -2 -13  60 N21       30.47R WCI -25
GWINNER        MOSUNNY    0 -13  55 N24       30.47S WCI -24
SHEYENNE NWR     N/A     -7 -19  57 N14       29.95S WCI -28
BUFFALO        NOT AVBL
WYNDMERE         N/A     -6 -15  65 N16         N/A  WCI -28
 ***** THE ABOVE OBSERVATIONS ARE NON NWS ARE NOT QUALITY
       CONTROLLED AND MAY MIS-REPORT RAIN FOR SNOW...
$$

  *****  WEATHER ACROSS NORTHERN MINNESOTA  *****

CITY           SKY/WX    TMP DP  RH WIND       PRES   REMARKS
FLAG ISLAND    MOSUNNY  -18 -26  69 NW8       30.51S WCI -37
WARROAD        MOSUNNY  -17 -26  63 CALM      30.51F
ROSEAU         MOSUNNY  -15 -22  70 N3        30.52F
HALLOCK        MOSUNNY  -11 -20  64 NW3       30.58S
THF RVR FALLS  MOSUNNY   -9 -17  70 N6        30.51S WCI -23
HALSTAD          N/A     -7 -17  62 N14         N/A  WCI -27
FOSSTON        MOSUNNY   -9 -15  77 NE8       30.47S WCI -26
BAUDETTE       MOSUNNY  -16 -22  74 NW6       30.49R WCI -31
WASKISH        MOSUNNY   -8 -15  71 CALM      30.47S
CROOKSTON      SUNNY     -9 -17  70 N9        30.57S WCI -27
$$
  *****  WEATHER ACROSS CENTRAL AND WEST MINNESOTA  *****

CITY           SKY/WX    TMP DP  RH WIND       PRES   REMARKS
BEMIDJI        MOSUNNY  -10 -17  71 N5        30.44R WCI -22
PARK RAPIDS    MOSUNNY   -5 -16  59 N10G16    30.39R WCI -23
WADENA         CLOUDY    -2 -11  65 N12       30.37R WCI -20
DETROIT LAKES  SUNNY     -2 -13  60 N8        30.43R WCI -17
MOORHEAD       SUNNY     -6 -11  77 N16       30.51S WCI -28
FERGUS FALLS   MOSUNNY    0 -15  50 N9        30.46R WCI -16
ELBOW LAKE     PTSUNNY    2  -8  62 N13       30.38R WCI -15
MORRIS MN      MOSUNNY    7  -2  66 N17       30.36R WCI -12
STAPLES        CLOUDY     0  -8  71 N9        30.37R WCI -16
WHEATON        PTSUNNY   -2 -11  65 N18G25    30.45R WCI -24
$$
  *****  WEATHER ELSEWHERE ACROSS MINNESOTA  *****

CITY           SKY/WX    TMP DP  RH WIND       PRES   REMARKS
DULUTH         MOSUNNY   -1 -13  56 N13       30.33R WCI -19
INTRNTL FALLS  MOSUNNY  -13 -20  71 NE5       30.47S WCI -25
ELY            PTSUNNY  -11 -18  70 N5        30.39S WCI -23
CLOQUET        PTSUNNY    1  -9  60 N10G16    30.33S WCI -14
BRAINERD       MOSUNNY    2  -7  66 N10       30.36S WCI -14
HIBBING        MOSUNNY   -7 -18  59 N9        30.39S WCI -24
ALEXANDRIA     MOSUNNY    3  -5  69 N14       30.33R WCI -15
SAINT CLOUD    CLOUDY     7  -1  70 N13       30.30S WCI  -9
MINNEAPOLIS    CLOUDY    13   2  61 NE15      30.25R WCI  -3
$$

  *****  WEATHER ACROSS SOUTH DAKOTA  *****

CITY           SKY/WX    TMP DP  RH WIND       PRES   REMARKS
SIOUX FALLS    LGT SNOW   6   1  80 N22       30.21R VSB 3/4 WCI -15
BROOKINGS      NOT AVBL
WATERTOWN      CLOUDY    -1  -7  75 N20       30.29R WCI -23
HURON          LGT SNOW   0  -6  76 N21G31    30.38R WCI -22
SISSETON         N/A     -3 -11  68 N22       30.43R WCI -27
ABERDEEN       CLOUDY     0 -10  63 N22       30.45R WCI -23
MITCHELL       LGT SNOW   2  -4  76 N22G29    30.36R WCI -20
PIERRE         LGT SNOW  -2  -8  76 NW21      30.44R VSB 1   WCI -25
MOBRIDGE       LGT SNOW  -2 -10  69 N14       30.44S WCI -21
RAPID CITY     SUNNY      2  -2  83 N16       30.35R WCI -18
$$

  *****  SOME WEATHER IN NEARBY STATES *****

CITY           SKY/WX    TMP DP  RH WIND       PRES   REMARKS
GLASGOW MT     MOSUNNY   -5 -10  79 E9        30.40F WCI -22
GREAT FALLS MT PTCLDY     5   3  91 CALM      30.16F
CHEYENNE WY    MOSUNNY   16  11  80 N14       30.10R WCI   2
SCOTTSBLUFF NE CLOUDY    16   8  71 NW23G31   30.25R WCI  -2
OMAHA NE       SNOW      20  17  88 N31G37    29.97R VSB 1/2 WCI   1
DES MOINES IA  HVY SNOW  25  21  85 NE24G35   29.86R VSB 1/4 WCI   9
DAVENPORT IA   LGT SNOW  27  24  89 NE21      29.82S VSB 3/4 WCI  13
CHICAGO IL     HVY SNOW  29  27  92 NE18      29.90F VSB 1/4 WCI  16
EAU CLAIRE WI  CLOUDY    11   1  64 NE13G21   30.22R WCI  -4
LA CROSSE WI   LGT SNOW  16   9  74 N10G20    30.13F WCI   4
$$

  *****  SOME NATIONAL WEATHER *****

CITY           SKY/WX    TMP DP  RH WIND       PRES   REMARKS
LA GUARDIA NY  PTSUNNY   33  19  56 NW12      30.21F WCI  24
RALEIGH NC     CLOUDY    47  23  38 SW9       30.26F
ATLANTA GA     CLOUDY    54  41  62 S9G17     30.16F
NEW ORLEANS LA PTSUNNY   68  62  81 S8        30.02S
OKLAHOMA CITY  CLOUDY    36  28  73 NW31G39   30.00R
ALBUQUERQUE NM MOSUNNY   35  31  85 E3        30.13R
SALT LAKE CITY MOSUNNY   32  28  85 SE7       30.23R
LOS ANGELES CA MOSUNNY   54  47  77 E5        30.09R
BOISE ID       CLOUDY    36  24  62 SE8       30.17S
SEATTLE WA     LGT RAIN  43  41  93 CALM      30.03S FOG
$$

*** WEATHER ACROSS MANITOBA...SASKATCHEWAN AND ONTARIO ***
                ***ONTARIO***

CITY           SKY/WX    TMP DP  RH WIND       PRES   REMARKS
GERALDTON      MOSUNNY  -17 -22  76 SW5       30.37F WCI -29
THUNDER BAY    MOSUNNY  -11 -20  64 SW7       30.49S WCI -26
SIOUX LOOKOUT  MOSUNNY  -20 -26  76 NW6       30.43F WCI -36
TORONTO        PTSUNNY   10   0  61 N14       30.26F WCI  -5
BIG TROUT LK   SUNNY    -22 -29  69 W14       30.32S WCI -47
PICKLE LAKE    SUNNY    -20 -29  63 W9        30.35F WCI -40
DRYDEN         SUNNY    -18 -24  76 VRB2      30.43F
KENORA         SUNNY    -20 -26  76 N5        30.46F WCI -33
$$
                *** MANITOBA***

CITY           SKY/WX    TMP DP  RH WIND       PRES   REMARKS
BRANDON        PTSUNNY  -17 -24  70 W12       30.52F WCI -38
DAUPHIN        SUNNY    -11 -22  58 W12       30.50F WCI -31
ISLAND LAKE    SUNNY    -24 -31  69 W6        30.39F WCI -40
PILOT MOUND      N/A    -18 -26  69 W3          N/A
THE PAS        PTCLDY   -22 -27  76 SW3       30.41F
THOMPSON       CRYSTALS -24 -31  69 W7        30.33F WCI -42
WINNIPEG       SUNNY    -15 -24  64 W6        30.60S WCI -29
LYNN LAKE      MOCLDY   -24 -29  76 SW7       30.23F WCI -42
CHURCHILL      CLEAR    -26 -33  68 W10       30.23F WCI -48
GILLAM         PTCLDY   -24 -31  69 W13       30.29F WCI -48
$$
                ***SASKATCHEWAN***

CITY           SKY/WX    TMP DP  RH WIND       PRES   REMARKS
ESTEVAN        MOSUNNY   -8 -13  77 W6        30.46F WCI -21
KINDERSLEY     CRYSTALS  -6 -11  77 S8        30.24F WCI -21
LLOYDMINSTER   PTCLDY    -4  -8  84 SW9       30.18F WCI -20
PRINCE ALBERT  CLOUDY   -17 -22  76 NE3       30.33F
REGINA         MOSUNNY   -9 -13  84 S7        30.41F WCI -24


USA.gov is the U.S. government's official web portal to all federal, state and local government web resources and services.